User: anonymous   Login
Location: Scultetus-Sternwarte G�rlitz
(51.1356°N, 14.9514°E)
Time: 12:32:39
(UTC+02:00)
Language:

Iridium 3 - Orbit

View from above orbital plane
View from above orbital plane
View from above satellite
View from above satellite

Ground track
Ground track

The orbit data is extracted from the following two-line orbital elements,

1 25431U 98048A   15116.39563045  .00000615  00000-0  21236-3 0  9992
2 25431 086.4001 222.8642 0002349 092.8410 334.3061 14.34219065873412
Epoch (UTC): 26 April 2015 09:29:42
Eccentricity: 0.0002349
inclination: 86.4001°
perigee height: 776 km
apogee height: 779 km
right ascension of ascending node: 222.8642°
argument of perigee: 92.8410°
revolutions per day: 14.34219065
mean anomaly at epoch: 334.3061°
orbit number at epoch: 87341

The dashed part of the orbit path shows where the satellite is in the earth's shadow,  

DLR